<?xml version="1.0" encoding="UTF-8" standalone="no" ?>
<gpx xmlns="http://www.topografix.com/GPX/1/1" xmlns:xsi="http://www.w3.org/2001/XMLSchema-instance" xsi:schemaLocation="http://www.topografix.com/GPX/1/1 http://www.topografix.com/GPX/1/1/gpx.xsd" version="1.1" creator="VisuGPX - https://www.visugpx.com">
  <metadata>
    <name>vallée de la cance bis</name>
    <desc><![CDATA[depart de davezieux, vers citroen]]></desc>
  </metadata>
  <trk>
    <name><![CDATA[Vallee de la Cance]]></name>
    <trkseg>
      <trkpt lat="45.25243" lon="4.68608">
        <ele>415</ele>
        <time>2006-07-16T15:47:48Z</time>
      </trkpt>
      <trkpt lat="45.25194" lon="4.68676">
        <ele>418</ele>
        <time>2006-07-16T15:47:48Z</time>
      </trkpt>
      <trkpt lat="45.25165" lon="4.68751">
        <ele>420</ele>
        <time>2006-07-16T15:47:48Z</time>
      </trkpt>
      <trkpt lat="45.25075" lon="4.68792">
        <ele>416</ele>
        <time>2006-07-16T15:47:48Z</time>
      </trkpt>
      <trkpt lat="45.25288" lon="4.6947">
        <ele>419</ele>
        <time>2006-07-16T15:47:48Z</time>
      </trkpt>
      <trkpt lat="45.25301" lon="4.69681">
        <ele>422</ele>
        <time>2006-07-16T15:47:48Z</time>
      </trkpt>
      <trkpt lat="45.25266" lon="4.69759">
        <ele>420</ele>
        <time>2006-07-16T15:47:48Z</time>
      </trkpt>
      <trkpt lat="45.25308" lon="4.69869">
        <ele>420</ele>
        <time>2006-07-16T15:47:48Z</time>
      </trkpt>
      <trkpt lat="45.25245" lon="4.69882">
        <ele>417</ele>
        <time>2006-07-16T15:47:48Z</time>
      </trkpt>
      <trkpt lat="45.25213" lon="4.7003">
        <ele>415</ele>
        <time>2006-07-16T15:47:48Z</time>
      </trkpt>
      <trkpt lat="45.2514" lon="4.7004">
        <ele>414</ele>
        <time>2006-07-16T15:47:48Z</time>
      </trkpt>
      <trkpt lat="45.25218" lon="4.70215">
        <ele>416</ele>
        <time>2006-07-16T15:47:48Z</time>
      </trkpt>
      <trkpt lat="45.25134" lon="4.70454">
        <ele>415</ele>
        <time>2006-07-16T15:47:48Z</time>
      </trkpt>
      <trkpt lat="45.24787" lon="4.70598">
        <ele>416</ele>
        <time>2006-07-16T15:47:48Z</time>
      </trkpt>
      <trkpt lat="45.24432" lon="4.70446">
        <ele>419</ele>
        <time>2006-07-16T15:47:48Z</time>
      </trkpt>
      <trkpt lat="45.24283" lon="4.70172">
        <ele>419</ele>
        <time>2006-07-16T15:47:48Z</time>
      </trkpt>
      <trkpt lat="45.24298" lon="4.70081">
        <ele>416</ele>
        <time>2006-07-16T15:47:48Z</time>
      </trkpt>
      <trkpt lat="45.24195" lon="4.69735">
        <ele>409</ele>
        <time>2006-07-16T15:47:48Z</time>
      </trkpt>
      <trkpt lat="45.24075" lon="4.69886">
        <ele>418</ele>
        <time>2006-07-16T15:47:48Z</time>
      </trkpt>
      <trkpt lat="45.23925" lon="4.69972">
        <ele>419</ele>
        <time>2006-07-16T15:47:48Z</time>
      </trkpt>
      <trkpt lat="45.23875" lon="4.70063">
        <ele>417</ele>
        <time>2006-07-16T15:47:48Z</time>
      </trkpt>
      <trkpt lat="45.23777" lon="4.7024">
        <ele>406</ele>
        <time>2006-07-16T15:47:48Z</time>
      </trkpt>
      <trkpt lat="45.23607" lon="4.70188">
        <ele>398</ele>
        <time>2006-07-16T15:47:48Z</time>
      </trkpt>
      <trkpt lat="45.23439" lon="4.70079">
        <ele>390</ele>
        <time>2006-07-16T15:47:48Z</time>
      </trkpt>
      <trkpt lat="45.23271" lon="4.69941">
        <ele>394</ele>
        <time>2006-07-16T15:47:48Z</time>
      </trkpt>
      <trkpt lat="45.23091" lon="4.69915">
        <ele>388</ele>
        <time>2006-07-16T15:47:48Z</time>
      </trkpt>
      <trkpt lat="45.22961" lon="4.70227">
        <ele>360</ele>
        <time>2006-07-16T15:47:48Z</time>
      </trkpt>
      <trkpt lat="45.22924" lon="4.70242">
        <ele>358</ele>
        <time>2006-07-16T15:47:48Z</time>
      </trkpt>
      <trkpt lat="45.2291" lon="4.702">
        <ele>360</ele>
        <time>2006-07-16T15:47:48Z</time>
      </trkpt>
      <trkpt lat="45.22874" lon="4.70192">
        <ele>357</ele>
        <time>2006-07-16T15:47:48Z</time>
      </trkpt>
      <trkpt lat="45.22821" lon="4.70222">
        <ele>351</ele>
        <time>2006-07-16T15:47:48Z</time>
      </trkpt>
      <trkpt lat="45.22648" lon="4.70227">
        <ele>325</ele>
        <time>2006-07-16T15:47:48Z</time>
      </trkpt>
      <trkpt lat="45.22515" lon="4.70368">
        <ele>321</ele>
        <time>2006-07-16T15:47:48Z</time>
      </trkpt>
      <trkpt lat="45.22423" lon="4.70634">
        <ele>319</ele>
        <time>2006-07-16T15:47:48Z</time>
      </trkpt>
      <trkpt lat="45.22318" lon="4.70639">
        <ele>327</ele>
        <time>2006-07-16T15:47:48Z</time>
      </trkpt>
      <trkpt lat="45.22258" lon="4.70691">
        <ele>338</ele>
        <time>2006-07-16T15:47:48Z</time>
      </trkpt>
      <trkpt lat="45.22151" lon="4.70661">
        <ele>354</ele>
        <time>2006-07-16T15:47:48Z</time>
      </trkpt>
      <trkpt lat="45.22117" lon="4.7078">
        <ele>362</ele>
        <time>2006-07-16T15:47:48Z</time>
      </trkpt>
      <trkpt lat="45.21669" lon="4.71099">
        <ele>390</ele>
        <time>2006-07-16T15:47:48Z</time>
      </trkpt>
      <trkpt lat="45.21622" lon="4.71304">
        <ele>388</ele>
        <time>2006-07-16T15:47:48Z</time>
      </trkpt>
      <trkpt lat="45.21627" lon="4.71594">
        <ele>381</ele>
        <time>2006-07-16T15:47:48Z</time>
      </trkpt>
      <trkpt lat="45.21616" lon="4.71673">
        <ele>378</ele>
        <time>2006-07-16T15:47:48Z</time>
      </trkpt>
      <trkpt lat="45.21583" lon="4.71754">
        <ele>371</ele>
        <time>2006-07-16T15:47:48Z</time>
      </trkpt>
      <trkpt lat="45.21583" lon="4.71948">
        <ele>361</ele>
        <time>2006-07-16T15:47:48Z</time>
      </trkpt>
      <trkpt lat="45.21483" lon="4.72109">
        <ele>363</ele>
        <time>2006-07-16T15:47:48Z</time>
      </trkpt>
      <trkpt lat="45.21375" lon="4.71997">
        <ele>360</ele>
        <time>2006-07-16T15:47:48Z</time>
      </trkpt>
      <trkpt lat="45.21313" lon="4.72045">
        <ele>362</ele>
        <time>2006-07-16T15:47:48Z</time>
      </trkpt>
      <trkpt lat="45.21252" lon="4.72065">
        <ele>351</ele>
        <time>2006-07-16T15:47:48Z</time>
      </trkpt>
      <trkpt lat="45.21187" lon="4.72052">
        <ele>334</ele>
        <time>2006-07-16T15:47:48Z</time>
      </trkpt>
      <trkpt lat="45.20972" lon="4.71893">
        <ele>306</ele>
        <time>2006-07-16T15:47:48Z</time>
      </trkpt>
      <trkpt lat="45.20907" lon="4.71897">
        <ele>294</ele>
        <time>2006-07-16T15:47:48Z</time>
      </trkpt>
      <trkpt lat="45.20907" lon="4.7198">
        <ele>290</ele>
        <time>2006-07-16T15:47:48Z</time>
      </trkpt>
      <trkpt lat="45.20882" lon="4.72001">
        <ele>280</ele>
        <time>2006-07-16T15:47:48Z</time>
      </trkpt>
      <trkpt lat="45.20896" lon="4.72072">
        <ele>273</ele>
        <time>2006-07-16T15:47:48Z</time>
      </trkpt>
      <trkpt lat="45.20787" lon="4.72026">
        <ele>252</ele>
        <time>2006-07-16T15:47:48Z</time>
      </trkpt>
      <trkpt lat="45.20822" lon="4.72094">
        <ele>262</ele>
        <time>2006-07-16T15:47:48Z</time>
      </trkpt>
      <trkpt lat="45.20727" lon="4.72125">
        <ele>259</ele>
        <time>2006-07-16T15:47:48Z</time>
      </trkpt>
      <trkpt lat="45.20671" lon="4.72218">
        <ele>267</ele>
        <time>2006-07-16T15:47:48Z</time>
      </trkpt>
      <trkpt lat="45.20541" lon="4.72193">
        <ele>245</ele>
        <time>2006-07-16T15:47:48Z</time>
      </trkpt>
      <trkpt lat="45.20542" lon="4.72426">
        <ele>241</ele>
        <time>2006-07-16T15:47:48Z</time>
      </trkpt>
      <trkpt lat="45.20581" lon="4.725">
        <ele>239</ele>
        <time>2006-07-16T15:47:48Z</time>
      </trkpt>
      <trkpt lat="45.20615" lon="4.72505">
        <ele>249</ele>
        <time>2006-07-16T15:47:48Z</time>
      </trkpt>
      <trkpt lat="45.2068" lon="4.72622">
        <ele>269</ele>
        <time>2006-07-16T15:47:48Z</time>
      </trkpt>
      <trkpt lat="45.20618" lon="4.72375">
        <ele>280</ele>
        <time>2006-07-16T15:47:48Z</time>
      </trkpt>
      <trkpt lat="45.20649" lon="4.72367">
        <ele>289</ele>
        <time>2006-07-16T15:47:48Z</time>
      </trkpt>
      <trkpt lat="45.2069" lon="4.72457">
        <ele>286</ele>
        <time>2006-07-16T15:47:48Z</time>
      </trkpt>
      <trkpt lat="45.20698" lon="4.72413">
        <ele>296</ele>
        <time>2006-07-16T15:47:48Z</time>
      </trkpt>
      <trkpt lat="45.20774" lon="4.72451">
        <ele>311</ele>
        <time>2006-07-16T15:47:48Z</time>
      </trkpt>
      <trkpt lat="45.2086" lon="4.72426">
        <ele>326</ele>
        <time>2006-07-16T15:47:48Z</time>
      </trkpt>
      <trkpt lat="45.21022" lon="4.72529">
        <ele>335</ele>
        <time>2006-07-16T15:47:48Z</time>
      </trkpt>
      <trkpt lat="45.2117" lon="4.72542">
        <ele>347</ele>
        <time>2006-07-16T15:47:48Z</time>
      </trkpt>
      <trkpt lat="45.21099" lon="4.72921">
        <ele>350</ele>
        <time>2006-07-16T15:47:48Z</time>
      </trkpt>
      <trkpt lat="45.21106" lon="4.73402">
        <ele>365</ele>
        <time>2006-07-16T15:47:48Z</time>
      </trkpt>
      <trkpt lat="45.21203" lon="4.73498">
        <ele>368</ele>
        <time>2006-07-16T15:47:48Z</time>
      </trkpt>
      <trkpt lat="45.21214" lon="4.7382">
        <ele>364</ele>
        <time>2006-07-16T15:47:48Z</time>
      </trkpt>
      <trkpt lat="45.21157" lon="4.74168">
        <ele>363</ele>
        <time>2006-07-16T15:47:48Z</time>
      </trkpt>
      <trkpt lat="45.21355" lon="4.74399">
        <ele>343</ele>
        <time>2006-07-16T15:47:48Z</time>
      </trkpt>
      <trkpt lat="45.21497" lon="4.74692">
        <ele>336</ele>
        <time>2006-07-16T15:47:48Z</time>
      </trkpt>
      <trkpt lat="45.21594" lon="4.74667">
        <ele>342</ele>
        <time>2006-07-16T15:47:48Z</time>
      </trkpt>
      <trkpt lat="45.21579" lon="4.74753">
        <ele>347</ele>
        <time>2006-07-16T15:47:48Z</time>
      </trkpt>
      <trkpt lat="45.21699" lon="4.74837">
        <ele>358</ele>
        <time>2006-07-16T15:47:48Z</time>
      </trkpt>
      <trkpt lat="45.21914" lon="4.74984">
        <ele>365</ele>
        <time>2006-07-16T15:47:48Z</time>
      </trkpt>
      <trkpt lat="45.22186" lon="4.75508">
        <ele>371</ele>
        <time>2006-07-16T15:47:48Z</time>
      </trkpt>
      <trkpt lat="45.22388" lon="4.75628">
        <ele>366</ele>
        <time>2006-07-16T15:47:48Z</time>
      </trkpt>
      <trkpt lat="45.22375" lon="4.75491">
        <ele>366</ele>
        <time>2006-07-16T15:47:48Z</time>
      </trkpt>
      <trkpt lat="45.22457" lon="4.75462">
        <ele>364</ele>
        <time>2006-07-16T15:47:48Z</time>
      </trkpt>
      <trkpt lat="45.22465" lon="4.75275">
        <ele>359</ele>
        <time>2006-07-16T15:47:48Z</time>
      </trkpt>
      <trkpt lat="45.22536" lon="4.75208">
        <ele>353</ele>
        <time>2006-07-16T15:47:48Z</time>
      </trkpt>
      <trkpt lat="45.22571" lon="4.75079">
        <ele>353</ele>
        <time>2006-07-16T15:47:48Z</time>
      </trkpt>
      <trkpt lat="45.22667" lon="4.75118">
        <ele>346</ele>
        <time>2006-07-16T15:47:48Z</time>
      </trkpt>
      <trkpt lat="45.22577" lon="4.74353">
        <ele>365</ele>
        <time>2006-07-16T15:47:48Z</time>
      </trkpt>
      <trkpt lat="45.22536" lon="4.74186">
        <ele>368</ele>
        <time>2006-07-16T15:47:48Z</time>
      </trkpt>
      <trkpt lat="45.22512" lon="4.73968">
        <ele>376</ele>
        <time>2006-07-16T15:47:48Z</time>
      </trkpt>
      <trkpt lat="45.22477" lon="4.73789">
        <ele>381</ele>
        <time>2006-07-16T15:47:48Z</time>
      </trkpt>
      <trkpt lat="45.22473" lon="4.73648">
        <ele>382</ele>
        <time>2006-07-16T15:47:48Z</time>
      </trkpt>
      <trkpt lat="45.22494" lon="4.73551">
        <ele>382</ele>
        <time>2006-07-16T15:47:48Z</time>
      </trkpt>
      <trkpt lat="45.22538" lon="4.73559">
        <ele>382</ele>
        <time>2006-07-16T15:47:48Z</time>
      </trkpt>
      <trkpt lat="45.22898" lon="4.73275">
        <ele>382</ele>
        <time>2006-07-16T15:47:48Z</time>
      </trkpt>
      <trkpt lat="45.22779" lon="4.72939">
        <ele>369</ele>
        <time>2006-07-16T15:47:48Z</time>
      </trkpt>
      <trkpt lat="45.22679" lon="4.72896">
        <ele>365</ele>
        <time>2006-07-16T15:47:48Z</time>
      </trkpt>
      <trkpt lat="45.22598" lon="4.72769">
        <ele>367</ele>
        <time>2006-07-16T15:47:48Z</time>
      </trkpt>
      <trkpt lat="45.22492" lon="4.72707">
        <ele>370</ele>
        <time>2006-07-16T15:47:48Z</time>
      </trkpt>
      <trkpt lat="45.22214" lon="4.72638">
        <ele>386</ele>
        <time>2006-07-16T15:47:48Z</time>
      </trkpt>
      <trkpt lat="45.22282" lon="4.72398">
        <ele>391</ele>
        <time>2006-07-16T15:47:48Z</time>
      </trkpt>
      <trkpt lat="45.22444" lon="4.72106">
        <ele>390</ele>
        <time>2006-07-16T15:47:48Z</time>
      </trkpt>
      <trkpt lat="45.227" lon="4.71897">
        <ele>387</ele>
        <time>2006-07-16T15:47:48Z</time>
      </trkpt>
      <trkpt lat="45.23149" lon="4.72242">
        <ele>377</ele>
        <time>2006-07-16T15:47:48Z</time>
      </trkpt>
      <trkpt lat="45.23356" lon="4.72378">
        <ele>381</ele>
        <time>2006-07-16T15:47:48Z</time>
      </trkpt>
      <trkpt lat="45.23622" lon="4.72447">
        <ele>388</ele>
        <time>2006-07-16T15:47:48Z</time>
      </trkpt>
      <trkpt lat="45.23537" lon="4.73045">
        <ele>385</ele>
        <time>2006-07-16T15:47:48Z</time>
      </trkpt>
      <trkpt lat="45.23569" lon="4.73132">
        <ele>384</ele>
        <time>2006-07-16T15:47:48Z</time>
      </trkpt>
      <trkpt lat="45.23654" lon="4.73492">
        <ele>377</ele>
        <time>2006-07-16T15:47:48Z</time>
      </trkpt>
      <trkpt lat="45.23732" lon="4.73607">
        <ele>372</ele>
        <time>2006-07-16T15:47:48Z</time>
      </trkpt>
      <trkpt lat="45.23676" lon="4.73821">
        <ele>370</ele>
        <time>2006-07-16T15:47:48Z</time>
      </trkpt>
      <trkpt lat="45.23799" lon="4.73941">
        <ele>371</ele>
        <time>2006-07-16T15:47:48Z</time>
      </trkpt>
      <trkpt lat="45.23861" lon="4.7389">
        <ele>374</ele>
        <time>2006-07-16T15:47:48Z</time>
      </trkpt>
      <trkpt lat="45.24122" lon="4.74118">
        <ele>385</ele>
        <time>2006-07-16T15:47:48Z</time>
      </trkpt>
      <trkpt lat="45.24426" lon="4.74182">
        <ele>383</ele>
        <time>2006-07-16T15:47:48Z</time>
      </trkpt>
      <trkpt lat="45.24517" lon="4.73638">
        <ele>392</ele>
        <time>2006-07-16T15:47:48Z</time>
      </trkpt>
      <trkpt lat="45.24538" lon="4.73384">
        <ele>393</ele>
        <time>2006-07-16T15:47:48Z</time>
      </trkpt>
      <trkpt lat="45.24623" lon="4.73072">
        <ele>394</ele>
        <time>2006-07-16T15:47:48Z</time>
      </trkpt>
      <trkpt lat="45.24658" lon="4.72803">
        <ele>393</ele>
        <time>2006-07-16T15:47:48Z</time>
      </trkpt>
      <trkpt lat="45.24083" lon="4.72568">
        <ele>381</ele>
        <time>2006-07-16T15:47:48Z</time>
      </trkpt>
      <trkpt lat="45.24051" lon="4.72599">
        <ele>382</ele>
        <time>2006-07-16T15:47:48Z</time>
      </trkpt>
      <trkpt lat="45.23962" lon="4.72563">
        <ele>388</ele>
        <time>2006-07-16T15:47:48Z</time>
      </trkpt>
      <trkpt lat="45.24005" lon="4.72307">
        <ele>391</ele>
        <time>2006-07-16T15:47:48Z</time>
      </trkpt>
      <trkpt lat="45.23904" lon="4.72303">
        <ele>394</ele>
        <time>2006-07-16T15:47:48Z</time>
      </trkpt>
      <trkpt lat="45.23883" lon="4.72241">
        <ele>394</ele>
        <time>2006-07-16T15:47:48Z</time>
      </trkpt>
      <trkpt lat="45.23906" lon="4.72121">
        <ele>394</ele>
        <time>2006-07-16T15:47:48Z</time>
      </trkpt>
      <trkpt lat="45.23707" lon="4.71845">
        <ele>401</ele>
        <time>2006-07-16T15:47:48Z</time>
      </trkpt>
      <trkpt lat="45.23742" lon="4.71786">
        <ele>402</ele>
        <time>2006-07-16T15:47:48Z</time>
      </trkpt>
      <trkpt lat="45.23807" lon="4.71703">
        <ele>403</ele>
        <time>2006-07-16T15:47:48Z</time>
      </trkpt>
      <trkpt lat="45.23871" lon="4.71425">
        <ele>400</ele>
        <time>2006-07-16T15:47:48Z</time>
      </trkpt>
      <trkpt lat="45.23861" lon="4.71285">
        <ele>400</ele>
        <time>2006-07-16T15:47:48Z</time>
      </trkpt>
      <trkpt lat="45.23915" lon="4.70845">
        <ele>407</ele>
        <time>2006-07-16T15:47:48Z</time>
      </trkpt>
      <trkpt lat="45.23973" lon="4.70541">
        <ele>410</ele>
        <time>2006-07-16T15:47:48Z</time>
      </trkpt>
      <trkpt lat="45.23875" lon="4.70063">
        <ele>417</ele>
        <time>2006-07-16T15:47:48Z</time>
      </trkpt>
      <trkpt lat="45.23925" lon="4.69972">
        <ele>419</ele>
        <time>2006-07-16T15:47:48Z</time>
      </trkpt>
      <trkpt lat="45.24075" lon="4.69886">
        <ele>418</ele>
        <time>2006-07-16T15:47:48Z</time>
      </trkpt>
      <trkpt lat="45.24195" lon="4.69735">
        <ele>409</ele>
        <time>2006-07-16T15:47:48Z</time>
      </trkpt>
      <trkpt lat="45.24298" lon="4.70081">
        <ele>416</ele>
        <time>2006-07-16T15:47:48Z</time>
      </trkpt>
      <trkpt lat="45.24283" lon="4.70172">
        <ele>419</ele>
        <time>2006-07-16T15:47:48Z</time>
      </trkpt>
      <trkpt lat="45.24432" lon="4.70446">
        <ele>419</ele>
        <time>2006-07-16T15:47:48Z</time>
      </trkpt>
      <trkpt lat="45.2474" lon="4.70584">
        <ele>416</ele>
        <time>2006-07-16T15:47:48Z</time>
      </trkpt>
      <trkpt lat="45.24787" lon="4.70598">
        <ele>416</ele>
        <time>2006-07-16T15:47:48Z</time>
      </trkpt>
      <trkpt lat="45.25134" lon="4.70454">
        <ele>415</ele>
        <time>2006-07-16T15:47:48Z</time>
      </trkpt>
      <trkpt lat="45.25218" lon="4.70215">
        <ele>416</ele>
        <time>2006-07-16T15:47:48Z</time>
      </trkpt>
      <trkpt lat="45.2514" lon="4.7004">
        <ele>414</ele>
        <time>2006-07-16T15:47:48Z</time>
      </trkpt>
      <trkpt lat="45.25213" lon="4.7003">
        <ele>415</ele>
        <time>2006-07-16T15:47:48Z</time>
      </trkpt>
      <trkpt lat="45.25245" lon="4.69882">
        <ele>417</ele>
        <time>2006-07-16T15:47:48Z</time>
      </trkpt>
      <trkpt lat="45.25308" lon="4.69869">
        <ele>420</ele>
        <time>2006-07-16T15:47:48Z</time>
      </trkpt>
      <trkpt lat="45.25266" lon="4.69759">
        <ele>420</ele>
        <time>2006-07-16T15:47:48Z</time>
      </trkpt>
      <trkpt lat="45.25301" lon="4.69681">
        <ele>422</ele>
        <time>2006-07-16T15:47:48Z</time>
      </trkpt>
      <trkpt lat="45.25288" lon="4.6947">
        <ele>419</ele>
        <time>2006-07-16T15:47:48Z</time>
      </trkpt>
      <trkpt lat="45.25075" lon="4.68792">
        <ele>416</ele>
        <time>2006-07-16T15:47:48Z</time>
      </trkpt>
      <trkpt lat="45.25165" lon="4.68751">
        <ele>420</ele>
        <time>2006-07-16T15:47:48Z</time>
      </trkpt>
      <trkpt lat="45.25194" lon="4.68676">
        <ele>418</ele>
        <time>2006-07-16T15:47:48Z</time>
      </trkpt>
      <trkpt lat="45.25243" lon="4.68608">
        <ele>415</ele>
        <time>2006-07-16T15:47:48Z</time>
      </trkpt>
      <trkpt lat="45.25265" lon="4.68615">
        <ele>415</ele>
        <time>2006-07-16T15:47:48Z</time>
      </trkpt>
    </trkseg>
  </trk>
</gpx>